{"data":{"norad_id":38332,"epoch":"2026-05-25T04:22:06.167712Z","epoch_age_seconds":73506,"freshness":"FRESH","line1":"1 38332U 12023B   26145.18201583 -.00000331  00000+0  00000+0 0  9999","line2":"2 38332   0.0310  44.0355 0002472  31.1304   4.9827  1.00272036 46420","mean_motion":1.00272036,"eccentricity":0.0002472,"inclination_deg":0.031,"raan_deg":44.0355,"arg_perigee_deg":31.1304,"mean_anomaly_deg":4.9827,"bstar":0,"rev_number":4642,"period_min":1436.0933092054,"perigee_km":35776.101492579,"apogee_km":35796.947701273,"semimajor_km":42164.661596926,"source":"CELESTRAK","updated_at":"2026-05-25T13:38:13.910861Z"}}